TimeWET,TemperatureF,Dew PointF,Humidity,Sea Level PressureIn,VisibilityMPH,Wind Direction,Wind SpeedMPH,Gust SpeedMPH,PrecipitationIn,Events,Conditions,WindDirDegrees,DateUTC
12:00 AM,67,40,26,29.92,6,ENE,12.7,,,,Partly Cloudy,70,2012-11-26 00:00:00
12:00 AM,66.2,41.0,40,29.92,-9999.0,ENE,12.7,-,N/A,,Clear,70,2012-11-26 00:00:00
1:00 AM,68.0,41.0,37,29.89,-9999.0,ENE,17.3,-,N/A,,Clear,70,2012-11-26 01:00:00
2:00 AM,68.0,41.0,37,29.89,-9999.0,East,13.8,-,N/A,,Clear,80,2012-11-26 02:00:00
3:00 AM,68,40,25,29.89,6,East,17.3,,,,Partly Cloudy,80,2012-11-26 03:00:00
3:00 AM,68.0,41.0,37,29.89,-9999.0,East,17.3,-,N/A,,Clear,80,2012-11-26 03:00:00
4:00 AM,-9999,-9999,N/A,0.00,-9999.0,North,-9999.0,-,N/A,,Clear,0,2012-11-26 04:00:00
5:00 AM,68.0,39.2,35,29.86,6.2,ENE,18.4,-,N/A,,Unknown,60,2012-11-26 05:00:00
6:00 AM,70,38,20,29.87,6,ENE,19.6,,,,,60,2012-11-26 06:00:00
6:00 AM,69.8,37.4,31,29.86,6.2,ENE,19.6,-,N/A,,Unknown,60,2012-11-26 06:00:00
7:00 AM,69.8,39.2,33,29.86,-9999.0,ENE,19.6,-,N/A,,Clear,70,2012-11-26 07:00:00
8:00 AM,-9999,-9999,N/A,29.89,6.2,ENE,15.0,-,N/A,,Mostly Cloudy,70,2012-11-26 08:00:00
9:00 AM,71,40,22,29.90,6,ENE,16.1,,,,Partly Cloudy,70,2012-11-26 09:00:00
9:00 AM,71.6,41.0,33,29.89,6.2,ENE,16.1,-,N/A,,Mostly Cloudy,70,2012-11-26 09:00:00
10:00 AM,75.2,41.0,29,29.89,6.2,ENE,18.4,-,N/A,,Scattered Clouds,70,2012-11-26 10:00:00
11:00 AM,78.8,41.0,26,29.89,6.2,ENE,23.0,-,N/A,,Scattered Clouds,70,2012-11-26 11:00:00
12:00 PM,80,40,14,29.88,6,ENE,24.2,,,,Partly Cloudy,70,2012-11-26 12:00:00
12:00 PM,78.8,39.2,24,29.89,6.2,ENE,24.2,-,N/A,,Scattered Clouds,70,2012-11-26 12:00:00
1:00 PM,78.8,41.0,26,29.86,6.2,ENE,17.3,-,N/A,,Scattered Clouds,70,2012-11-26 13:00:00
2:00 PM,78.8,42.8,28,29.83,6.2,ENE,16.1,-,N/A,,Scattered Clouds,60,2012-11-26 14:00:00
3:00 PM,76,44,21,29.83,6,South,4.6,,,,Partly Cloudy,190,2012-11-26 15:00:00
3:00 PM,77.0,42.8,29,29.83,6.2,South,4.6,-,N/A,,Mostly Cloudy,190,2012-11-26 15:00:00
4:00 PM,-9999,-9999,N/A,0.00,-9999.0,North,-9999.0,-,N/A,,Mostly Cloudy,0,2012-11-26 16:00:00
5:00 PM,71.6,50.0,46,29.83,6.2,NNE,10.4,-,N/A,,Mostly Cloudy,30,2012-11-26 17:00:00
6:00 PM,71,47,32,29.84,6,NE,9.2,,,,Partly Cloudy,40,2012-11-26 18:00:00
6:00 PM,71.6,48.2,43,29.83,6.2,NE,9.2,-,N/A,,Mostly Cloudy,40,2012-11-26 18:00:00
7:00 PM,69.8,48.2,46,29.83,6.2,NE,6.9,-,N/A,,Mostly Cloudy,50,2012-11-26 19:00:00
8:00 PM,-9999,-9999,N/A,0.00,-9999.0,North,-9999.0,-,N/A,,Mostly Cloudy,0,2012-11-26 20:00:00
9:00 PM,68,49,41,29.88,6,NE,6.9,,,,Partly Cloudy,50,2012-11-26 21:00:00
9:00 PM,68.0,50.0,52,29.86,6.2,NE,6.9,-,N/A,,Mostly Cloudy,50,2012-11-26 21:00:00
10:00 PM,66.2,50.0,56,29.86,6.2,NE,5.8,-,N/A,,Mostly Cloudy,50,2012-11-26 22:00:00
11:00 PM,66.2,50.0,56,29.89,6.2,NE,9.2,-,N/A,,Mostly Cloudy,50,2012-11-26 23:00:00